星链-35651(STARLINK-35651)

导读 | 豆包AI

STARLINK-35651是美国SpaceX公司星链(Starlink)星座的一员,于2025年11月8日发射入轨。作为低轨宽带通信卫星,它采用平板设计搭配单块太阳翼,搭载氪工质霍尔推进器,具备自主避撞能力,旨在为全球偏远地区提供低延迟高速互联网服务,是星链全球卫星互联网组网计划的重要组成部分,推进了星座部署进程。

基本信息
目录编号:
66386
目录名称:
STARLINK-35651
国际标识:
2025-257G
轨道中心:
EARTH
卫星名称:
星链-35651
卫星全名:
星链-35651(STARLINK-35651)
卫星状态:
在轨 (已飞行126 天)
发射日期:
2025-11-08 UTC
国别 :
美国 (US)
星等 :
--
轨道信息
数据来源 国际轨道数据 AOE轨道数据
星历时间 2026-03-14T01:13:51+0800
12小时前
查看轨道信息
2026-03-11T09:00:00+0800
3天前
查看轨道信息
半长轴 6853.271km 6853.184km
偏心率 0.0001107 0.0001064
轨道倾角 53.160° 53.159°
近地点辐角 91.753° 60.868°
升交点赤经 198.072° 210.504°
平近点角 268.359° 308.240°
近地点 474.375km 474.317km
远地点 475.893km 475.777km
周期 94.104分钟 94.102分钟
每日圈数 15.302272 15.302563
详细信息
固有亮度:
5
最大亮度:
2.5
卫星平台:
Starlink V1.0
覆盖范围:
全球
运营商:
太空探索技术公司
运营商所在国:
美国
制造商(研发单位):
太空探索技术公司
制造商所在国:
美国
使用方式:
暂无
卫星简介
Starlink 计划是 SpaceX 推出的全球卫星互联网项目,通过发射低轨道卫星,为全球尤其是偏远地区提供高速、低延迟的互联网服务。自 2019 年起,Starlink 已部署数千颗卫星,旨在缩小全球数字鸿沟,推动互联网普及。该项目还为军事、航空等行业提供通信支持,带来广泛经济效益。
2D轨道图
3D轨道图
轨道高度分析图
轨道倾角分析图
轨道综合分析图
查看轨道综合分析图